Location: Ar Ranvel
(48.3000°N, 4.8833°W)
Time: 18:44:27
(UTC+00:00)

Cosmos 2322 Rocket - Pass Details

Date: 23 October 2021
Orbit: 832 x 851 km, 71.0° (Epoch: 27 November)

Event Time Altitude Azimuth Distance (km) Brightness Sun altitude
Rises 20:02:10 0° 231° (SW) 3,368 5.8 -28.2°
Reaches altitude 10° 20:04:45 10° 239° (WSW) 2,439 5.1 -28.6°
Maximum altitude 20:09:58 39° 308° (NW) 1,229 3.4 -29.5°
Enters shadow 20:14:41 13° 14° (NNE) 2,270 4.4 -30.2°
